Probability
0 0 0 0 0 0 0 0 0 0 0 0 0 0 0 0 0 1 0 0 0 0 0 0 0 1 2 2 2 1 0 0 0 0 0 0 0 0 0 0 0 0 0
0 0 0 0 0 0 0 0 0 0 0 0 1 1 1 1 1 1 0 0 0 0 0 0 0 0 1 2 3 2 1 1 0 0 0 0 0 0 0 0 0 0 0
0 0 0 0 0 0 0 0 0 0 0 0 1 2 2 2 1 1 0 0 0 0 0 0 0 0 1 2 3 3 3 2 1 0 0 0 0 0 0 0 0 0 0
0 0 0 0 0 0 0 0 0 0 0 0 1 2 2 1 1 0 0 0 0 0 0 0 0 0 0 1 3 3 3 3 2 1 0 0 0 0 0 0 0 0 0
0 0 0 0 0 0 0 0 0 0 0 0 0 1 1 0 0 0 0 0 0 0 0 0 0 0 0 1 2 3 3 3 3 2 1 0 0 0 0 0 0 0 0
0 0 0 0 0 0 0 0 0 0 0 0 0 0 0 0 0 0 0 0 0 0 0 0 0 0 0 0 1 1 2 2 3 2 1 0 0 0 0 0 0 0 0
0 0 0 0 0 0 0 0 0 0 0 0 0 0 0 0 0 0 0 0 0 0 0 0 0 0 0 0 0 0 1 1 1 2 1 0 0 0 0 0 0 0 0
0 0 0 0 0 0 0 0 0 0 0 0 0 0 0 0 0 0 0 0 0 0 0 0 0 0 0 0 0 0 0 0 0 1 1 0 0 0 0 0 0 0 0
0 0 0 0 0 0 0 0 0 0 0 0 0 0 0 0 0 0 0 0 0 0 0 0 0 0 0 0 0 0 0 0 0 0 0 0 0 0 0 0 0 0 0
0 0 0 0 0 0 0 0 0 0 0 0 0 0 0 0 0 0 0 0 0 0 0 0 0 0 0 0 0 0 0 0 0 0 0 0 0 0 0 0 0 0 0
0 0 0 0 0 0 0 0 0 0 0 0 0 0 0 0 0 0 0 0 0 0 0 0 0 0 0 0 0 0 0 0 0 0 0 0 0 0 0 0 0 0 0
0 0 0 0 0 0 0 0 0 0 0 0 0 0 0 0 0 0 0 0 0 0 0 0 0 0 0 0 0 0 0 0 0 0 0 0 0 0 0 0 0 0 0
0 0 0 0 0 0 0 0 0 0 0 0 0 0 0 0 0 0 0 0 0 0 0 0 0 0 0 0 0 0 0 0 0 0 0 0 0 0 0 0 0 0 0
0 0 0 0 0 0 0 0 0 0 0 0 0 0 0 0 0 0 0 0 0 0 0 0 0 0 0 0 0 0 0 0 0 0 0 0 0 0 0 0 0 0 0
0 0 0 0 0 0 0 0 0 0 0 0 0 0 0 0 0 0 0 0 0 0 0 0 0 0 0 0 0 0 0 0 0 0 0 0 0 0 0 0 0 0 0
0 0 0 0 0 0 0 0 0 0 0 0 0 0 0 0 0 0 0 0 0 0 0 0 0 0 0 0 0 0 0 0 0 0 0 0 0 0 0 0 0 0 0
0 0 0 0 0 0 0 0 0 0 0 0 0 0 0 0 0 0 0 0 0 0 0 0 0 0 0 0 0 0 0 0 0 0 0 0 0 0 0 0 0 0 0
0 0 0 0 0 0 0 0 0 0 0 0 0 0 0 0 0 0 0 0 0 0 0 0 0 0 0 0 0 0 0 0 0 0 0 0 0 0 0 0 0 0 0
0 0 0 0 0 0 0 0 0 0 0 0 0 0 0 0 0 0 0 0 0 0 0 0 0 0 0 0 0 0 0 0 0 0 0 0 0 0 0 0 0 0 0
0 0 0 0 0 0 0 0 0 0 0 0 0 0 0 0 0 0 0 0 0 0 0 0 0 0 0 0 0 0 0 0 0 0 0 0 0 0 0 0 0 0 0
0 0 0 0 0 0 0 0 0 0 0 0 0 0 0 0 0 0 0 0 0 0 0 0 0 0 0 0 0 0 0 0 0 0 0 0 0 0 0 0 0 0 0
0 0 0 0 0 0 0 0 0 0 0 0 0 0 0 0 0 0 0 0 0 0 0 0 0 0 0 0 0 0 0 0 0 0 0 0 0 0 0 0 0 0 0
0 0 0 0 0 0 0 0 0 0 0 0 0 0 0 0 0 0 0 0 0 0 0 0 0 0 0 0 0 0 0 0 0 0 0 0 0 0 0 0 0 0 0
0 0 0 0 0 0 0 0 0 0 0 0 0 0 0 0 0 0 0 0 0 0 0 0 0 0 0 0 0 0 0 0 0 0 0 0 0 0 0 0 0 0 0
0 0 0 0 0 0 0 0 0 0 0 0 0 0 0 0 0 0 0 0 0 0 0 0 0 0 0 0 0 0 0 0 0 0 0 0 0 0 0 0 0 0 0
0 0 0 0 0 0 0 0 0 0 0 0 0 0 0 0 0 0 0 0 0 0 0 0 0 0 0 0 0 0 0 0 0 0 0 0 0 0 0 0 0 0 0
Wind_Speed
6 5 5 4 4 4 3 4 4 4 4 4 4 4 4 4 5 6 6 6 8 7 7 8 9 8 6 6 7 7 8 8 10 7 5 4 5 5 4 4 4 4 4
7 6 5 5 5 5 5 5 4 4 4 4 4 3 4 4 4 5 6 6 7 7 7 7 9 7 9 7 6 7 7 8 9 10 6 5 7 6 5 5 4 3 4
7 6 6 6 5 5 6 6 5 5 5 4 4 4 4 4 5 5 6 6 7 7 7 8 7 7 8 7 7 7 6 6 7 7 7 5 5 4 4 4 4 3 3
7 6 6 6 6 6 6 6 5 5 5 5 5 4 4 5 5 5 5 6 6 7 7 7 7 7 7 7 6 7 6 7 6 6 6 4 4 3 3 4 4 4 4
7 7 7 7 6 6 6 6 6 5 5 5 5 5 4 4 4 4 5 5 6 6 6 6 6 6 7 6 5 6 6 6 5 6 6 5 4 3 4 4 5 3 4
7 7 7 6 6 6 6 6 6 6 5 5 5 5 5 4 5 5 5 5 6 6 6 5 5 5 5 6 7 7 6 7 7 6 6 7 7 6 4 4 4 3 4
7 7 7 6 6 6 6 6 6 6 6 6 5 5 5 6 6 6 5 5 5 5 6 5 5 4 5 5 5 5 5 6 7 7 7 7 6 5 5 5 6 5 5
7 7 6 6 6 6 6 6 6 6 6 6 6 6 6 6 6 7 6 5 5 5 5 5 6 6 5 4 4 4 4 3 4 4 5 5 4 4 4 5 5 4 2
7 7 6 6 6 6 7 7 6 6 6 6 6 6 6 6 6 6 5 4 4 5 4 4 4 5 5 5 4 3 3 2 1 0 1 2 1 1 2 2 2 2 2
7 7 7 6 7 7 7 7 6 6 6 6 6 6 6 6 6 6 5 3 4 4 3 3 3 4 4 3 4 4 4 3 1 1 1 1 1 1 1 2 3 3 2
7 6 6 6 6 7 7 6 6 5 5 5 6 6 6 6 6 6 5 3 3 4 3 3 3 3 4 3 3 3 4 3 2 2 2 2 1 1 1 2 2 3 3
6 6 6 6 6 5 6 6 5 5 5 5 5 5 4 4 5 6 6 6 5 4 4 3 2 3 3 4 3 3 2 2 2 2 2 3 2 2 1 1 1 2 2
5 6 6 6 5 5 5 5 5 4 4 4 4 5 4 4 4 5 5 6 6 4 3 4 4 4 4 3 2 2 2 2 2 3 3 3 2 2 1 1 1 1 1
6 6 5 5 5 4 4 4 4 4 4 4 4 5 5 4 3 3 3 3 3 3 2 2 3 3 3 2 2 1 1 2 2 3 2 2 1 1 2 1 2 1 1
6 6 5 5 5 4 4 4 5 5 5 6 5 5 5 5 5 6 5 4 3 3 2 2 2 2 2 2 2 1 1 1 2 2 2 2 2 2 2 2 2 2 2
5 5 4 4 4 4 4 4 5 6 7 8 9 8 6 7 8 8 7 6 5 4 2 3 3 3 3 3 2 2 2 2 2 2 2 2 2 3 2 2 2 2 3
6 5 4 4 4 4 4 4 4 4 5 5 6 7 7 7 7 6 6 6 5 4 3 3 3 3 3 3 3 3 3 2 2 2 2 2 2 2 2 2 2 3 3
5 5 4 4 4 4 4 4 4 4 5 4 4 5 6 6 6 6 6 5 3 3 3 3 3 3 3 3 3 3 2 2 2 2 3 3 3 3 3 3 3 3 3
4 4 3 4 4 4 4 4 4 4 4 4 4 4 5 6 5 5 4 3 3 3 3 3 3 3 3 3 3 3 3 3 3 3 3 3 3 3 3 3 3 4 3
4 4 4 4 3 3 3 3 4 4 4 4 4 4 4 4 3 3 3 3 3 3 3 3 3 3 3 3 3 3 3 3 3 3 3 3 3 4 4 4 4 4 3
4 4 4 3 3 3 3 3 4 4 4 4 4 4 5 4 3 4 3 3 3 3 3 3 3 3 3 3 3 4 4 4 4 4 4 3 3 3 3 3 4 3 3
3 3 3 3 3 3 3 3 4 3 4 4 4 4 5 4 3 3 3 3 3 3 3 3 3 3 3 4 4 4 4 4 4 4 4 4 4 4 3 3 3 3 3
3 3 3 3 3 3 3 3 3 3 4 4 4 4 3 3 3 4 4 3 3 3 3 3 3 3 3 3 4 4 5 5 5 4 4 4 4 4 4 4 4 4 4
3 3 3 3 3 3 3 3 3 3 4 4 4 4 3 3 4 4 4 4 3 3 3 3 4 5 5 4 3 4 4 4 4 4 6 5 5 4 4 4 4 4 4
3 3 3 4 4 3 3 3 3 3 4 3 3 3 4 4 4 4 4 4 4 4 4 4 3 4 5 5 5 4 5 6 5 4 4 4 5 5 5 5 4 4 4
4 4 4 3 4 3 3 3 3 4 4 3 3 4 4 4 4 4 4 3 4 4 4 4 4 5 5 5 6 6 6 6 6 6 5 5 5 5 5 4 5 5 5
Wind_Direction
336 333 335 334 334 333 318 314 311 304 298 289 283 260 249 244 237 234 235 233 234 236 235 235 236 235 236 233 230 230 233 237 250 257 257 251 243 243 242 243 248 249 240
330 328 326 327 331 331 327 319 316 313 305 291 283 277 263 255 248 244 245 241 239 240 240 239 241 237 236 236 236 238 238 237 245 252 249 245 247 244 244 239 240 247 252
326 324 322 323 324 321 321 321 318 316 312 299 284 275 272 269 259 249 247 248 246 243 240 237 240 240 242 239 238 240 242 244 245 250 250 247 252 244 247 248 246 250 256
320 317 314 316 316 314 314 315 315 312 309 305 294 283 275 268 263 262 261 254 251 251 249 245 241 238 242 245 244 244 244 244 242 245 248 248 251 247 238 242 248 244 252
312 309 306 311 312 312 311 312 312 308 304 304 305 300 294 281 272 275 270 265 259 257 256 254 252 249 248 246 248 249 246 243 241 240 243 243 240 224 231 236 244 249 251
301 299 304 307 307 307 307 309 307 304 301 299 298 300 302 303 296 288 279 269 265 257 256 257 257 249 244 243 243 242 242 244 243 242 242 241 243 238 237 232 233 237 248
289 292 297 299 300 303 304 302 300 300 301 296 294 294 291 295 302 299 289 276 268 260 254 253 256 255 245 249 247 244 246 250 247 247 246 245 247 240 233 233 232 237 247
284 287 291 294 297 301 300 296 297 298 295 292 290 289 289 288 293 300 294 276 271 267 261 255 250 251 248 249 253 250 251 258 257 256 256 260 262 256 243 238 236 246 278
283 285 289 291 292 293 291 292 296 297 294 292 287 282 281 282 281 291 298 288 275 276 279 273 261 256 247 236 238 241 250 267 353 237 263 278 300 275 240 209 204 204 243
282 287 289 286 284 283 285 289 293 292 290 293 289 283 278 278 278 282 291 281 276 278 280 272 256 258 258 243 238 230 242 251 258 281 267 274 274 293 285 240 219 218 230
288 289 287 283 282 280 283 286 288 289 290 290 289 289 283 278 273 274 281 274 267 272 268 268 264 255 257 257 267 254 244 246 247 247 254 252 252 256 278 290 281 245 236
288 284 283 283 281 279 279 283 284 282 282 283 285 287 283 279 272 269 271 273 274 268 266 269 268 262 274 280 278 266 258 250 243 237 241 247 249 254 271 291 300 302 291
286 281 281 282 279 275 271 274 280 278 272 276 278 281 285 284 280 278 272 272 274 273 273 271 271 267 278 274 255 259 260 247 232 234 241 252 259 258 260 265 275 277 329
275 276 277 275 277 277 273 268 266 267 268 269 271 275 279 279 276 276 277 276 269 267 268 280 277 264 261 268 263 245 240 252 251 250 253 261 266 257 251 254 249 240 258
277 275 275 272 274 279 278 275 273 271 268 271 273 272 274 274 276 284 284 279 273 265 270 279 275 259 243 244 252 255 245 239 244 250 246 251 252 250 255 255 249 247 239
276 278 279 278 279 279 283 289 282 277 283 278 275 275 277 277 283 282 282 281 280 264 260 248 245 244 248 249 248 251 249 246 246 239 231 234 237 240 246 245 244 237 239
271 278 281 280 279 278 277 280 291 300 290 289 293 291 284 283 280 276 278 278 274 257 247 238 240 243 243 245 245 245 248 249 247 237 232 231 229 232 237 237 234 233 235
277 278 277 276 278 278 275 274 277 285 294 300 305 308 308 303 296 288 278 272 262 243 237 236 238 243 248 243 242 244 244 242 238 236 234 230 225 224 228 232 232 233 235
283 282 283 282 279 277 277 275 273 273 277 289 303 307 312 306 303 302 290 264 250 245 242 243 242 241 242 242 242 239 236 237 237 237 234 229 226 223 227 230 233 233 235
287 289 291 284 283 281 278 275 274 274 276 282 289 302 308 303 300 304 295 277 259 255 246 241 242 242 240 239 240 239 237 233 228 230 234 232 229 227 228 230 230 231 237
292 293 292 287 281 279 279 278 277 275 276 281 288 296 297 294 290 289 285 277 270 266 257 250 244 241 239 235 233 231 233 234 228 227 230 231 226 229 232 232 232 232 232
290 291 290 287 286 283 283 280 279 278 279 283 291 297 297 292 284 282 282 281 278 273 269 262 256 249 243 236 231 230 229 229 227 223 226 228 226 226 227 227 226 227 224
287 287 289 288 285 284 282 280 279 279 280 282 286 289 290 287 286 288 291 290 286 279 272 263 260 258 253 247 240 233 233 232 230 224 222 224 223 220 219 221 220 221 219
283 281 282 284 284 282 284 286 285 282 284 287 286 286 288 289 290 291 292 292 288 282 276 269 262 256 255 257 251 245 242 241 237 226 222 222 223 218 214 216 219 215 215
278 277 277 279 279 280 282 283 283 283 284 284 286 287 289 290 289 289 290 290 290 286 284 281 269 258 252 256 256 253 246 247 248 232 217 216 217 214 210 212 212 208 209
281 279 278 279 277 277 274 275 279 282 283 285 288 289 288 286 286 286 288 289 291 291 290 286 275 269 263 261 255 252 249 246 243 231 218 212 211 210 203 205 205 204 202